Need Help? Talk to an Expert info@thzeal.com

Home

>

homepage

Homepage

CIK Ticker Name Date Form
1747661 ZNB Zeta Network Group 2026-05-08 06:13:31 6-K
891478 BCDRF Banco Santander, S.A. 2026-05-08 06:12:58 13F-HR
1916331 NCI Neo-Concept International Group Holdings Ltd 2026-05-08 06:12:39 6-K
1983550 TDTH Trident Digital Tech Holdings Ltd 2026-05-08 06:12:26 6-K
19617 VYLD JPMORGAN CHASE & CO 2026-05-08 06:11:42 424B2
1665650 JPMorgan Chase Financial Co. LLC 2026-05-08 06:11:42 424B2
1710065 AJU IB Investment Co., Ltd. 2026-05-08 06:11:14 13F-HR
845982 SNNUF SMITH & NEPHEW PLC 2026-05-08 06:11:11 6-K
1782430 STRW Strawberry Fields REIT, Inc. 2026-05-08 06:10:41 8-K |    |  
96271 TAMPA ELECTRIC CO 2026-05-08 06:10:37 10-Q |    |  
1499543 NOAH NOAH HOLDINGS LTD 2026-05-08 06:10:20 6-K
2041338 TDIC Dreamland Ltd 2026-05-08 06:10:19 6-K
1875016 YMAT J-Star Holding Co., Ltd. 2026-05-08 06:10:02 6-K
1739361 SAM Investment Holdings, S.L. 2026-05-08 06:09:50 13F-NT
1294404 SFUNY Fang Holdings Ltd 2026-05-08 06:08:16 6-K
1046179 TSMWF TAIWAN SEMICONDUCTOR MANUFACTURING CO LTD 2026-05-08 06:07:47 6-K
2124177 Index Ventures XIII (Jersey), L.P. 2026-05-08 06:07:35 D
1844952 Grupo Empresarial Santander, S.L. 2026-05-08 06:07:23 13F-NT
2132852 Yan Changming 2026-05-08 06:06:57 3
1294404 SFUNY Fang Holdings Ltd 2026-05-08 06:06:57 3
2095418 Weichai Power Hong Kong International Development Co., Ltd 2026-05-08 06:06:54 144
1453015 BLDP Ballard Power Systems Inc. 2026-05-08 06:06:54 144
30305 DCO DUCOMMUN INC /DE/ 2026-05-08 06:06:03 10-K/A
1859807 NVACW Profusa, Inc. 2026-05-08 06:05:57 8-K |    |  
1766907 Act Two Investors LLC 2026-05-08 06:05:47 13F-HR
1375205 URG UR-ENERGY INC 2026-05-08 06:05:45 10-Q |    |  
1040829 RHP Ryman Hospitality Properties, Inc. 2026-05-08 06:05:43 8-K |    |  
1665650 JPMorgan Chase Financial Co. LLC 2026-05-08 06:05:39 FWP
19617 VYLD JPMORGAN CHASE & CO 2026-05-08 06:05:23 FWP
1782430 STRW Strawberry Fields REIT, Inc. 2026-05-08 06:05:23 8-K |    |  
59478 LLY ELI LILLY & Co 2026-05-08 06:05:18 424B2
2124173 Index Origin III (Jersey) L.P. 2026-05-08 06:05:08 D
1123134 IMOS CHIPMOS TECHNOLOGIES INC 2026-05-08 06:05:03 6-K
1768259 GOTU Gaotu Techedu Inc. 2026-05-08 06:04:39 4
2111532 Cui Jin 2026-05-08 06:04:39 4
1279704 CLRB Cellectar Biosciences, Inc. 2026-05-08 06:04:31 8-K |    |  
1973832 AU AngloGold Ashanti PLC 2026-05-08 06:03:32 6-K
1729171 Ye Gang 2026-05-08 06:03:18 4
1703399 SE Sea Ltd 2026-05-08 06:03:18 4
1840706 SOPH SOPHiA GENETICS SA 2026-05-08 06:03:10 6-K
2110910 Eizenman Avinoam 2026-05-08 06:03:05 144
916793 SILC SILICOM LTD. 2026-05-08 06:03:05 144
1703399 SE Sea Ltd 2026-05-08 06:03:03 4
1965706 Chen Jingye 2026-05-08 06:03:03 4
1697453 Banco Santander International 2026-05-08 06:03:01 13F-NT
1120970 LODE Comstock Inc. 2026-05-08 06:02:46 8-K |    |  
1477333 NET Cloudflare, Inc. 2026-05-08 06:02:44 10-Q |    |  
1973832 AU AngloGold Ashanti PLC 2026-05-08 06:02:42 6-K
313838 SNEJF Sony Group Corp 2026-05-08 06:02:30 6-K
2113214 Wang Yanjun 2026-05-08 06:02:25 4
1703399 SE Sea Ltd 2026-05-08 06:02:25 4
1132924 CHT CHUNGHWA TELECOM CO LTD 2026-05-08 06:02:05 6-K
1973832 AU AngloGold Ashanti PLC 2026-05-08 06:01:59 6-K
1033767 UMC UNITED MICROELECTRONICS CORP 2026-05-08 06:01:59 6-K
1430162 CSAN Cosan S.A. 2026-05-08 06:01:55 6-K
726728 O REALTY INCOME CORP 2026-05-08 06:01:41 8-K |    |  
1697263 Banco Santander International SA 2026-05-08 06:01:38 13F-NT
313838 SNEJF Sony Group Corp 2026-05-08 06:01:34 6-K
1364125 WRN Western Copper & Gold Corp 2026-05-08 06:01:22 6-K
1673358 YUMC Yum China Holdings, Inc. 2026-05-08 06:01:16 10-Q |    |  
1083446 ASTH Astrana Health, Inc. 2026-05-08 06:01:16 10-Q |    |  
1313310 GRVY GRAVITY Co., Ltd. 2026-05-08 06:01:14 6-K
1054905 IOSP INNOSPEC INC. 2026-05-08 06:01:06 8-K |    |  
1000184 SAPGF SAP SE 2026-05-08 06:00:22 6-K
1370416 WPRT WESTPORT FUEL SYSTEMS INC. 2026-05-08 06:00:17 6-K
1782107 ONCO Onconetix, Inc. 2026-05-08 00:15:28 EFFECT
1855467 MOBXW MOBIX LABS, INC 2026-05-08 00:15:27 EFFECT
1296484 TOPS TOP SHIPS INC. 2026-05-08 00:15:26 EFFECT
1958133 DXST Decent Holding Inc. 2026-05-08 00:15:24 EFFECT
717538 AROW ARROW FINANCIAL CORP 2026-05-08 00:15:23 EFFECT
1489993 MOBI Mobia Medical, Inc. 2026-05-08 00:15:22 EFFECT
1835856 BETRW Better Home & Finance Holding Co 2026-05-08 00:15:20 EFFECT
1882782 ODTX Odyssey Therapeutics, Inc. 2026-05-08 00:15:19 EFFECT
2030763 WGRX Wellgistics Health, Inc. 2026-05-08 00:15:17 EFFECT
1471727 SRXH SRx Health Solutions, Inc. 2026-05-08 00:15:16 EFFECT
2110565 FT 12933 2026-05-08 00:15:15 EFFECT
2110561 FT 12930 2026-05-08 00:15:13 EFFECT
2094076 OTAI Starlink AI Acquisition Corp 2026-05-08 00:15:12 EFFECT
1918080 Deep Isolation Nuclear, Inc. 2026-05-08 00:15:10 EFFECT
1757563 Loomis Sayles Credit Income Opportunities Fund 2026-05-08 00:15:09 EFFECT
1831363 TERN Terns Pharmaceuticals, Inc. 2026-05-08 00:15:07 EFFECT
1845123 ANNAW AleAnna, Inc. 2026-05-08 00:15:06 EFFECT
1892500 CMND Clearmind Medicine Inc. 2026-05-08 00:15:05 EFFECT
1830188 UHGWW United Homes Group, Inc. 2026-05-08 00:15:04 EFFECT
1416090 BSAI BLUSKY AI INC. 2026-05-08 00:15:03 QUALIF
1959160 Luo Ying 2026-05-07 21:58:29 4
1124105 GYRE GYRE THERAPEUTICS, INC. 2026-05-07 21:58:29 4
1075736 CXDO Crexendo, Inc. 2026-05-07 21:56:57 4/A
1692516 Brinton Jon 2026-05-07 21:56:57 4/A
1869198 LTH Life Time Group Holdings, Inc. 2026-05-07 21:56:47 144
1447247 Partners Group Private Equity Fund, LLC 2026-05-07 21:56:47 144
726728 O REALTY INCOME CORP 2026-05-07 21:56:09 424B5
1869198 LTH Life Time Group Holdings, Inc. 2026-05-07 21:55:27 144
1887987 Partners Group Access 83 PF LP 2026-05-07 21:55:27 144
1882572 Riverwater Partners LLC 2026-05-07 21:55:25 13F-HR
1869198 LTH Life Time Group Holdings, Inc. 2026-05-07 21:55:16 144
1756041 Partners Group Private Equity II, LLC 2026-05-07 21:55:16 144
1869198 LTH Life Time Group Holdings, Inc. 2026-05-07 21:55:00 144
1888120 Partners Group Series Access II, LLC 2026-05-07 21:55:00 144
1869198 LTH Life Time Group Holdings, Inc. 2026-05-07 21:54:32 SCHEDULE 13D/A